Back to catalog

ONEWEB-0036

AliveCommunicationsPO
NORAD 45144·PAYLOAD·🇬🇧 United Kingdom

Launched Feb 6, 2020 from Baikonur Cosmodrome

Loading…

Next Passes (next 24 hours)

TLE

FreshSource: CelesTrak SupGP

Epoch: Sep 14, 2026, 17:14 UTC

1 45144C 20008P   26257.71822176  .00002909  00000+0  83431-2 0  2571
2 45144  87.8934  18.4696 0001846 105.2514   8.0205 13.10376085    10

Track ONEWEB-0036 in real time with AllMySat

Download on the App Store